Home   Weather   Spokane   Past weeks

Flag for USA Past Weather in Spokane, Washington, USA — Yesterday and Last 2 Weeks

Now
22 °F

Light snow. Ice fog.


Feels Like: 17 °F
Forecast: 25 / 31 °F
Wind: 3 mph from West

Location: Felts Field

Current Time: Dec 9, 2016 at 5:15:49 pm

Latest Report: Dec 9, 2016 at 3:53 pm


Visibility: 2 mi

Pressure: 30.13 "Hg (28.02 "Hg at 569m altitude)

Humidity: 85%

Dew Point: 18 °F

Location of SpokaneLocation

Past Weather in Spokane — Graph

°F

Spokane Temperature Yesterday

Maximum temperature yesterday: 26 °F (at 12:53 pm)
Minimum temperature yesterday: 15 °F (at 6:53 am)
Average temperature yesterday: 21 °F

High & Low Weather Summary for the Past Weeks

 TemperatureHumidityPressure
High57 °F (Nov 26, 12:53 pm)100% (Nov 27, 2:53 am)30.53 "Hg (Nov 27, 2:53 am)
Low15 °F (Dec 8, 6:53 am)39% (Nov 26, 12:53 pm)29.46 "Hg (Nov 28, 1:02 am)
Average34 °F77%30.04 "Hg
* Reported Nov 24 3:53 pm — Dec 9 3:53 pm, Spokane, Weather by CustomWeather, © 2016

Note: Actual official high and low records may vary slightly from our data, if they occured in-between our weather recording intervals... More about our weather records

Advertising

Spokane Weather History for the Previous 24 Hours

Scroll right to see more
 ConditionsComfort  
Time TempWeatherWind HumidityBarometerVisibility
3:53 pm
Fri, Dec 9
22 °FLight snow. Ice fog.3 mph85%30.13 "Hg2 mi
2:53 pm22 °FLight snow. Ice fog.No wind85%30.14 "Hg2 mi
1:53 pm22 °FLight snow. Mostly cloudy.No wind82%30.15 "Hg1 mi
12:53 pm21 °FLight snow. Mostly cloudy.6 mph81%30.18 "Hg5 mi
12:02 pm21 °FLight snow. Ice fog.No wind85%30.13 "Hg3 mi
11:53 am21 °FLight snow. Ice fog.No wind88%30.21 "Hg2 mi
10:53 am21 °FLight snow. More clouds than sun.No wind81%30.23 "Hg2 mi
9:53 am21 °FOvercast.No wind78%30.24 "Hg10 mi
8:53 am20 °FLight snow. Mostly cloudy.No wind78%30.25 "Hg8 mi
7:53 am20 °FLight snow. Overcast.3 mph78%30.25 "Hg7 mi
6:53 am20 °FOvercast.7 mph74%30.25 "Hg10 mi
5:53 am19 °FOvercast.8 mph81%30.25 "Hg9 mi
4:53 am20 °FLight snow. Overcast.6 mph74%30.25 "Hg7 mi
3:53 am20 °FLight snow. Overcast.6 mph71%30.25 "Hg7 mi
2:53 am20 °FOvercast.8 mph71%30.24 "Hg10 mi
1:53 am20 °FOvercast.3 mph74%30.24 "Hg9 mi
12:53 am20 °FLight snow. Overcast.6 mph71%30.24 "Hg3 mi
11:53 pm
Thu, Dec 8
22 °FMostly cloudy.7 mph52%30.22 "Hg10 mi
10:53 pm22 °FOvercast.7 mph50%30.22 "Hg10 mi
9:53 pm22 °FOvercast.8 mph50%30.22 "Hg10 mi
8:53 pm22 °FOvercast.12 mph50%30.22 "Hg10 mi
7:53 pm23 °FPassing clouds.10 mph48%30.22 "Hg10 mi
6:53 pm23 °FOvercast.8 mph50%30.22 "Hg10 mi
5:53 pm22 °FPassing clouds.7 mph52%30.22 "Hg10 mi
Weather by CustomWeather, © 2016

See weather overviewHow to use our weather pages